Location: Club d'Astronomie Sirius du Saguenay
(48.5448°N, 71.1471°W)
Time: 21:44:15
(UTC-05:00)

ISS - Visible Passes

Search period start: 14 December 2017 00:00
Search period end: 24 December 2017 00:00
Orbit: 403 x 406 km, 51.6° (Epoch: 15 December)

Date Brightness Start Highest point End Pass type
(mag) Time Alt. Az. Time Alt. Az. Time Alt. Az.
14 Dec -2.3 17:24:09 10° WNW 17:27:13 36° SSW 17:30:16 10° SE visible
15 Dec -3.2 16:31:50 10° WNW 16:35:04 58° SSW 16:38:19 10° SE visible
15 Dec -0.6 18:09:47 10° WSW 18:10:59 12° SW 18:12:12 10° SSW visible
16 Dec -1.0 17:16:34 10° W 17:18:59 19° SW 17:21:25 10° S visible
17 Dec -1.7 16:23:57 10° W 16:26:55 31° SW 16:29:51 10° SSE visible
